Oak Ridge, TN

12:49 AM EST on November 18, 2019 (GMT -0500)
Oak Ridge

Weather History for KOQT - September, 2019

Change the Weather History Date:

Friday, September 6, 2019

  Actual Average (WUND) Record (WUND)
Temperature  
Mean Temperature 75 °F -  
Max Temperature 89 °F - - (-1)
Min Temperature 61 °F - - (-1)
Cooling Degree Days 10    
Growing Degree Days 25 (Base 50)    
Moisture  
Dew Point 60 °F    
Average Humidity 63    
Maximum Humidity 87    
Minimum Humidity 35    
Precipitation  
Precipitation 0.00 in - - ()
Sea Level Pressure  
Sea Level Pressure 29.94 in    
Wind  
Wind Speed 1 mph ()    
Max Wind Speed 6 mph    
Max Gust Speed -    
Visibility 10.0 miles    
Events      
Averages and records for this station are not official NWS values.
T = Trace of Precipitation, MM = Missing Value Source: Averaged Metar Reports

Daily Weather History Graph

Daily Weather History Graph

Search for Another Location

Airport or City:

Astronomy

Sep. 06, 2019 Rise Set
Actual Time 7:12 AM EDT 7:57 PM EDT
Civil Twilight 6:46 AM EDT 8:23 PM EDT
Nautical Twilight 6:15 AM EDT 8:54 PM EDT
Astronomical Twilight 5:44 AM EDT 9:25 PM EDT
Moon 3:05 PM EDT (9/6) 12:27 AM EDT (9/6)
Length of Visible Light 13h 37m
Length of Day
12h 45m
First Quarter, 55% of the Moon is Illuminated
Sep 6
First Quarter
Sep 14
Full
Sep 21
Last Quarter
Sep 28
New
Oct 5
First Quarter

Hourly Weather History & Observations

Time (EDT) Temp. Heat Index Dew Point Humidity Pressure Visibility Wind Dir Wind Speed Gust Speed Precip Events Conditions
12:53 AM 69.1 °F - 60.1 °F 73% 29.94 in 10.0 mi Calm Calm - N/A   Clear
1:53 AM 66.9 °F - 59.0 °F 76% 29.94 in 10.0 mi Calm Calm - N/A   Clear
2:53 AM 64.9 °F - 60.1 °F 84% 29.94 in 10.0 mi Calm Calm - N/A   Clear
3:53 AM 64.0 °F - 59.0 °F 84% 29.94 in 10.0 mi Calm Calm - N/A   Clear
4:53 AM 63.0 °F - 59.0 °F 87% 29.93 in 10.0 mi Calm Calm - N/A   Clear
5:53 AM 62.1 °F - 57.0 °F 84% 29.94 in 10.0 mi Calm Calm - N/A   Clear
6:53 AM 61.0 °F - 57.0 °F 87% 29.96 in 10.0 mi Calm Calm - N/A   Clear
7:53 AM 62.1 °F - 57.9 °F 86% 29.98 in 10.0 mi Calm Calm - N/A   Clear
8:53 AM 66.9 °F - 59.0 °F 76% 29.98 in 10.0 mi Calm Calm - N/A   Clear
9:53 AM 73.0 °F - 60.1 °F 64% 29.98 in 10.0 mi Calm Calm - N/A   Clear
10:53 AM 77.0 °F - 60.1 °F 56% 29.98 in 10.0 mi Calm Calm - N/A   Clear
11:53 AM 78.1 °F - 57.9 °F 50% 29.97 in 10.0 mi WSW 4.6 mph - N/A   Clear
12:53 PM 82.0 °F 81.7 °F 57.0 °F 42% 29.95 in 10.0 mi Variable 3.5 mph - N/A   Clear
1:53 PM 84.0 °F 83.3 °F 57.0 °F 40% 29.93 in 10.0 mi Variable 3.5 mph - N/A   Clear
3:53 PM 88.0 °F 87.1 °F 59.0 °F 37% 29.90 in 10.0 mi South 5.8 mph - N/A   Clear
4:53 PM 89.1 °F 88.0 °F 57.9 °F 35% 29.89 in 10.0 mi Variable 3.5 mph - N/A   Clear
5:53 PM 87.1 °F 86.1 °F 57.9 °F 37% 29.90 in 10.0 mi SE 3.5 mph - N/A   Clear
6:53 PM 86.0 °F 85.4 °F 59.0 °F 40% 29.90 in 10.0 mi South 4.6 mph - N/A   Clear
7:53 PM 82.9 °F 83.7 °F 62.1 °F 49% 29.91 in 10.0 mi Calm Calm - N/A   Clear
8:53 PM 79.0 °F - 63.0 °F 58% 29.92 in 10.0 mi SW 3.5 mph - N/A   Clear
9:53 PM 78.1 °F - 64.0 °F 62% 29.92 in 10.0 mi Calm Calm - N/A   Scattered Clouds
10:53 PM 75.9 °F - 64.0 °F 67% 29.92 in 10.0 mi Calm Calm - N/A   Partly Cloudy
11:53 PM 75.0 °F - 64.0 °F 69% 29.91 in 10.0 mi Calm Calm - N/A   Mostly Cloudy